Weather History for Budapest Ferihegy, Hungary

Change the Weather History Date:

Sunday, June 9, 2013

  Actual Average Record
Temperature  
Mean Temperature 68 °F -  
Max Temperature 80 °F 76 °F 91 °F (2003)
Min Temperature 55 °F 54 °F 42 °F (2006)
Cooling Degree Days 2    
Growing Degree Days 18 (Base 50)    
Moisture  
Dew Point 58 °F    
Average Humidity 70    
Maximum Humidity 100    
Minimum Humidity 39    
Precipitation  
Precipitation 0.00 in - - ()
Sea Level Pressure  
Sea Level Pressure 29.86 in    
Wind  
Wind Speed 4 mph ()    
Max Wind Speed 13 mph    
Max Gust Speed -    
Visibility 5.8 miles    
Events Fog    
Averages and records for this station are not official NWS values.
T = Trace of Precipitation, MM = Missing Value Source: Averaged Metar Reports

Daily Weather History Graph

Daily Weather History Graph

Search for Another Location

Airport:

Trip Planner

Search our weather history database for the weather conditions in past years. The results will help you decide how hot, cold, wet, or windy it might be!

Date:

Astronomy

Jun. 09, 2013 Rise Set
Actual Time 4:46 AM CEST 8:38 PM CEST
Civil Twilight 4:06 AM CEST 9:18 PM CEST
Nautical Twilight 3:11 AM CEST 10:13 PM CEST
Astronomical Twilight 1:50 AM CEST 11:36 PM CEST
Moon 5:32 AM CEST (6/9) 9:07 PM CEST (6/9)
Length of Visible Light 17h 12m
Length of Day
15h 52m
New Moon, 1% of the Moon is Illuminated
Jun 9
New Moon
Jun 16
First Quarter
Jun 23
Full
Jun 30
Last Quarter
Jul 8
New

Hourly Weather History & Observations

Time (CEST) Temp. Heat Index Dew Point Humidity Pressure Visibility Wind Dir Wind Speed Gust Speed Precip Events Conditions
12:00 AM 60.8 °F - 60.8 °F 100% 29.92 in - Variable 2.3 mph - N/A   Clear
12:30 AM 60.8 °F - 60.8 °F 100% 29.92 in - Variable 1.2 mph - N/A   Clear
1:00 AM 60.8 °F - 60.8 °F 100% 29.92 in - Variable 3.5 mph - N/A   Clear
1:30 AM 60.8 °F - 60.8 °F 100% 29.89 in - North 6.9 mph - N/A   Clear
2:00 AM 59.0 °F - 59.0 °F 100% 29.89 in - Calm Calm - N/A   Clear
2:30 AM 57.2 °F - 57.2 °F 100% 29.89 in - Variable 2.3 mph - N/A   Clear
3:00 AM 57.2 °F - 57.2 °F 100% 29.89 in - Calm Calm - N/A   Clear
3:30 AM 55.4 °F - 55.4 °F 100% 29.89 in 5.0 mi Calm Calm - N/A Fog Fog
4:00 AM 55.4 °F - 55.4 °F 100% 29.89 in 5.0 mi Calm Calm - N/A Fog Fog
4:30 AM 55.4 °F - 55.4 °F 100% 29.89 in 5.0 mi Variable 1.2 mph - N/A Fog Fog
5:00 AM 55.4 °F - 55.4 °F 100% 29.89 in 6.2 mi Variable 2.3 mph - N/A Fog Shallow Fog
5:30 AM 57.2 °F - 57.2 °F 100% 29.89 in - Variable 1.2 mph - N/A   Clear
6:00 AM 57.2 °F - 57.2 °F 100% 29.89 in - Variable 1.2 mph - N/A   Clear
6:30 AM 60.8 °F - 60.8 °F 100% 29.89 in - Variable 2.3 mph - N/A   Clear
7:00 AM 64.4 °F - 62.6 °F 94% 29.89 in - Variable 1.2 mph - N/A   Clear
7:30 AM 68.0 °F - 64.4 °F 88% 29.89 in - Calm Calm - N/A   Clear
8:00 AM 69.8 °F - 62.6 °F 78% 29.89 in - Variable 1.2 mph - N/A   Clear
8:30 AM 69.8 °F - 60.8 °F 73% 29.89 in - Variable 3.5 mph - N/A   Clear
9:00 AM 71.6 °F - 62.6 °F 73% 29.89 in - Variable 3.5 mph - N/A   Clear
9:30 AM 73.4 °F - 62.6 °F 69% 29.89 in - Variable 3.5 mph - N/A   Clear
10:00 AM 73.4 °F - 62.6 °F 69% 29.89 in - SSE 4.6 mph - N/A   Clear
10:30 AM 77.0 °F - 60.8 °F 57% 29.89 in - South 5.8 mph - N/A   Clear
11:00 AM 77.0 °F - 59.0 °F 54% 29.89 in 6.2 mi SSW 9.2 mph - N/A   Partly Cloudy
11:30 AM 77.0 °F - 60.8 °F 57% 29.89 in 6.2 mi SW 8.1 mph - N/A   Scattered Clouds
12:00 PM 77.0 °F - 59.0 °F 54% 29.89 in 6.2 mi South 8.1 mph - N/A   Scattered Clouds
12:30 PM 78.8 °F - 59.0 °F 51% 29.89 in 6.2 mi SE 9.2 mph - N/A   Scattered Clouds
1:00 PM 78.8 °F - 59.0 °F 51% 29.86 in 6.2 mi SSE 9.2 mph - N/A   Scattered Clouds
1:30 PM 78.8 °F - 55.4 °F 44% 29.86 in 6.2 mi South 9.2 mph - N/A   Scattered Clouds
2:00 PM 80.6 °F 80.5 °F 55.4 °F 42% 29.86 in - South 11.5 mph - N/A   Clear
2:30 PM 80.6 °F 81.1 °F 59.0 °F 48% 29.86 in - SSW 10.4 mph - N/A   Clear
3:00 PM 80.6 °F 80.8 °F 57.2 °F 45% 29.86 in - South 10.4 mph - N/A   Clear
3:30 PM 80.6 °F 80.8 °F 57.2 °F 45% 29.83 in - SSE 11.5 mph - N/A   Clear
4:00 PM 80.6 °F 80.8 °F 57.2 °F 45% 29.83 in - South 11.5 mph - N/A   Clear
4:30 PM 80.6 °F 80.3 °F 53.6 °F 39% 29.83 in - South 10.4 mph - N/A   Clear
5:00 PM 80.6 °F 80.8 °F 57.2 °F 45% 29.80 in - South 10.4 mph - N/A   Clear
5:30 PM 80.6 °F 80.8 °F 57.2 °F 45% 29.80 in - SSW 9.2 mph - N/A   Clear
6:00 PM 80.6 °F 80.3 °F 53.6 °F 39% 29.80 in - South 10.4 mph - N/A   Clear
6:30 PM 80.6 °F 80.5 °F 55.4 °F 42% 29.80 in - South 11.5 mph - N/A   Clear
7:00 PM 80.6 °F 80.5 °F 55.4 °F 42% 29.80 in - South 12.7 mph - N/A   Clear
7:30 PM 78.8 °F - 55.4 °F 44% 29.80 in - South 9.2 mph - N/A   Clear
8:00 PM 77.0 °F - 55.4 °F 47% 29.80 in - South 9.2 mph - N/A   Clear
8:30 PM 75.2 °F - 55.4 °F 50% 29.80 in - South 6.9 mph - N/A   Clear
9:00 PM 73.4 °F - 55.4 °F 53% 29.80 in - SSE 6.9 mph - N/A   Clear
9:30 PM 71.6 °F - 57.2 °F 60% 29.80 in - SSE 6.9 mph - N/A   Clear
10:00 PM 68.0 °F - 57.2 °F 68% 29.80 in - SSE 6.9 mph - N/A   Clear
10:30 PM 64.4 °F - 57.2 °F 77% 29.80 in - ESE 6.9 mph - N/A   Clear
11:00 PM 64.4 °F - 57.2 °F 77% 29.80 in - SE 5.8 mph - N/A   Clear
11:30 PM 66.2 °F - 59.0 °F 78% 29.80 in - SE 4.6 mph - N/A   Clear